Location: ???? ????
(41.4149°N, 22.8816°E)
Time: 14:47:30
(UTC+00:00)

Cosmos 1975 - Pass Details

Date: 14 July 2020
Orbit: 542 x 562 km, 82.5° (Epoch: 03 August)

Event Time Altitude Azimuth Distance (km) Brightness Sun altitude
Exits shadow 02:09:48 - 199° (SSW) 1,858 5.0 -9.6°
Reaches altitude 10° 02:09:55 10° 200° (SSW) 1,808 4.9 -9.6°
Maximum altitude 02:13:50 58° 279° (W) 638 2.9 -9.1°
Drops below altitude 10° 02:17:47 10° 360° (N) 1,816 6.0 -8.5°
Sets 02:19:59 0° 4° (N) 2,712 7.1 -8.2°
